EW5920 Weather Reports


Display with metric or nautical units.
time (UTC)temp
F
wind
direction
speed
MPH
gust
MPH
rain 1hr
in
rain 24hr
in
rain mn
in
humidity
%
barometer
mb
20260507084635 54 179 0.0 0.0 0.00 0.00 0.00 81 1021.2
20260507083626 54 340 0.0 0.0 0.00 0.00 0.00 81 1021.2
20260507082556 54 297 0.0 0.0 0.00 0.00 0.00 81 1021.1
20260507080441 54 281 0.0 0.0 0.00 0.00 0.00 81 1021.2
20260507075410 54 271 0.0 0.0 0.00 0.00 0.00 81 1021.2
20260507074407 54 345 0.0 0.0 0.00 0.00 0.00 81 1021.2
20260507073359 54 275 0.0 0.0 0.00 0.00 0.00 81 1021.2
20260507072404 53 281 0.0 0.0 0.00 0.00 0.00 81 1021.2
20260507070250 53 279 0.0 2.0 0.00 0.00 0.00 81 1021.0
20260507065314 53 252 0.0 2.0 0.00 0.00 0.00 81 1021.1
20260507064316 53 354 0.0 1.0 0.00 0.00 0.00 81 1021.1
20260507063247 53 269 0.0 1.0 0.00 0.00 0.00 81 1021.1
20260507062225 53 283 0.0 0.0 0.00 0.00 0.00 81 1021.1
20260507061203 53 274 0.0 0.0 0.00 0.00 0.00 81 1021.1
20260507060221 53 280 0.0 1.0 0.00 0.00 0.00 81 1021.0
20260507055230 53 281 0.0 0.0 0.00 0.00 0.00 81 1021.1
20260507054240 53 283 0.0 2.0 0.00 0.00 0.00 80 1020.9
20260507053209 53 189 0.0 5.0 0.00 0.00 0.00 80 1021.0
20260507052137 53 295 0.0 5.0 0.00 0.00 0.00 80 1021.0
20260507051201 53 285 0.0 1.0 0.00 0.00 0.00 80 1021.0
20260507050131 54 300 0.0 2.0 0.00 0.00 0.00 79 1021.0
20260507045156 54 285 0.0 0.0 0.00 0.00 0.00 79 1021.0
20260507044127 54 276 0.0 5.0 0.00 0.00 0.00 80 1021.0
20260507043116 54 271 0.0 0.0 0.00 0.00 0.00 79 1020.8
20260507035906 55 286 0.0 0.0 0.00 0.00 0.00 78 1020.4
20260507034846 55 259 0.0 5.0 0.00 0.00 0.00 78 1020.3
20260507031556 57 282 1.0 4.0 0.00 0.00 0.00 76 1019.9
20260507030525 58 300 0.0 3.0 0.00 0.00 0.00 75 1019.8
20260507024416 59 259 0.0 3.0 0.00 0.00 0.00 73 1019.6
20260507023348 60 273 0.0 2.0 0.00 0.00 0.00 72 1019.7
20260507020100 62 300 0.0 1.0 0.00 0.00 0.00 69 1019.6
20260507015041 63 248 1.0 5.0 0.00 0.00 0.00 67 1019.7
20260507014019 63 282 1.0 4.0 0.00 0.00 0.00 66 1019.8
20260507012959 64 281 1.0 4.0 0.00 0.00 0.00 65 1019.7
20260507012012 65 259 1.0 4.0 0.00 0.00 0.00 64 1019.7
20260507005957 67 284 1.0 5.0 0.00 0.00 0.00 62 1019.7
20260507004942 68 269 1.0 5.0 0.00 0.00 0.00 62 1019.6
20260507003931 67 271 1.0 5.0 0.00 0.00 0.00 62 1019.6
20260507002928 69 293 1.0 4.0 0.00 0.00 0.00 60 1019.6
20260507001932 69 290 1.0 4.0 0.00 0.00 0.00 61 1019.4
20260507000931 69 269 1.0 5.0 0.00 0.00 0.00 61 1019.4
20260506235915 70 240 1.0 5.0 0.00 0.00 0.00 59 1019.4
20260506234935 70 262 0.0 4.0 0.00 0.00 0.00 59 1019.4
20260506233945 71 312 1.0 5.0 0.00 0.00 0.00 59 1019.3
20260506232957 72 281 0.0 6.0 0.00 0.00 0.00 58 1019.3
20260506230842 73 90 1.0 4.0 0.00 0.00 0.00 55 1019.4
20260506223612 72 11 0.0 2.0 0.00 0.00 0.00 55 1019.6
20260506222618 73 285 0.0 3.0 0.00 0.00 0.00 56 1019.7
20260506221634 72 267 0.0 3.0 0.00 0.00 0.00 55 1019.8
20260506220643 72 193 0.0 3.0 0.00 0.00 0.00 59 1019.8
20260506215634 71 350 0.0 2.0 0.00 0.00 0.00 58 1020.0
20260506214605 72 266 0.0 2.0 0.00 0.00 0.00 58 1020.0
20260506213627 71 324 0.0 2.0 0.00 0.00 0.00 60 1019.9
20260506212635 70 131 0.0 2.0 0.00 0.00 0.00 61 1020.0
20260506211636 69 356 1.0 2.0 0.00 0.00 0.00 63 1020.0
20260506210658 68 150 0.0 2.0 0.00 0.00 0.00 64 1020.1
20260506205722 67 347 0.0 6.0 0.00 0.00 0.00 65 1020.2
20260506204721 68 136 1.0 6.0 0.00 0.00 0.00 63 1020.3
20260506203654 67 176 1.0 4.0 0.00 0.00 0.00 65 1020.4
20260506202701 67 224 1.0 3.0 0.00 0.00 0.00 67 1020.5
20260506201659 66 230 0.0 3.0 0.00 0.00 0.00 69 1020.5
20260506200644 66 285 0.0 8.0 0.00 0.00 0.00 68 1020.5
20260506195628 67 199 1.0 8.0 0.00 0.00 0.00 68 1020.5
20260506194650 66 290 0.0 5.0 0.00 0.00 0.00 70 1020.6
20260506193702 65 285 1.0 5.0 0.00 0.00 0.00 70 1020.6
20260506192649 64 171 1.0 6.0 0.00 0.00 0.00 72 1020.6
20260506191616 64 260 1.0 7.0 0.00 0.00 0.00 72 1020.7
20260506190617 63 207 2.0 7.0 0.00 0.00 0.00 72 1020.8
20260506185628 63 284 0.0 2.0 0.00 0.00 0.00 73 1020.9
20260506184634 61 291 1.0 5.0 0.00 0.00 0.00 75 1021.0
20260506182511 61 164 2.0 8.0 0.00 0.00 0.00 76 1020.9
20260506181518 61 164 2.0 6.0 0.00 0.00 0.00 76 1021.0
20260506180451 60 204 1.0 5.0 0.00 0.00 0.00 78 1020.8
20260506175449 59 229 0.0 3.0 0.00 0.00 0.00 80 1020.8
20260506174420 58 155 0.0 3.0 0.00 0.00 0.00 80 1020.9
20260506173430 58 163 0.0 2.0 0.00 0.00 0.00 80 1020.9
20260506172426 58 312 0.0 0.0 0.00 0.00 0.00 81 1021.0
20260506171414 58 79 0.0 0.0 0.00 0.00 0.00 81 1020.8
20260506170405 57 337 0.0 0.0 0.00 0.00 0.00 82 1020.7
20260506165426 57 212 0.0 0.0 0.00 0.00 0.00 82 1020.9
20260506164400 56 287 0.0 4.0 0.00 0.00 0.00 83 1021.0
20260506163350 56 152 0.0 3.0 0.00 0.00 0.00 83 1020.8
20260506162335 56 284 0.0 1.0 0.00 0.00 0.00 84 1021.0
20260506161317 56 193 0.0 4.0 0.00 0.00 0.00 84 1020.6
20260506160304 55 195 1.0 3.0 0.00 0.00 0.00 83 1020.3
20260506155327 55 175 0.0 1.0 0.00 0.00 0.00 84 1020.6
20260506154310 54 219 0.0 1.0 0.00 0.00 0.00 84 1020.8
20260506153324 54 283 0.0 1.0 0.00 0.00 0.00 84 1020.9
20260506152306 53 267 1.0 7.0 0.00 0.00 0.00 85 1021.0
20260506151234 53 291 1.0 5.0 0.00 0.00 0.00 84 1021.1
20260506145149 54 275 0.0 1.0 0.00 0.00 0.00 83 1021.0
20260506144158 55 251 0.0 0.0 0.00 0.00 0.00 84 1020.5
20260506143159 54 166 0.0 0.0 0.00 0.00 0.00 84 1020.3
20260506142136 54 200 0.0 0.0 0.00 0.00 0.00 84 1020.0
20260506141113 53 205 0.0 0.0 0.00 0.00 0.00 86 1019.9
20260506140111 53 167 0.0 0.0 0.00 0.00 0.00 87 1019.9
20260506135133 53 142 0.0 0.0 0.00 0.00 0.00 87 1020.0
20260506134147 53 110 0.0 0.0 0.00 0.00 0.00 88 1019.9
20260506132108 53 179 0.0 0.0 0.00 0.00 0.00 88 1019.9
20260506131059 53 222 0.0 0.0 0.00 0.00 0.00 87 1019.8
20260506130104 53 222 0.0 0.0 0.00 0.00 0.00 87 1019.6
20260506125049 53 191 0.0 0.0 0.00 0.00 0.00 86 1019.6
20260506124102 53 182 0.0 0.0 0.00 0.00 0.00 86 1019.6
20260506123119 53 288 0.0 0.0 0.00 0.00 0.00 86 1019.6
20260506122046 53 288 0.0 0.0 0.00 0.00 0.00 86 1019.6
20260506121035 53 55 0.0 1.0 0.00 0.00 0.00 86 1019.5
20260506120010 53 286 0.0 1.0 0.00 0.00 0.00 86 1019.4
20260506115001 53 285 0.0 2.0 0.00 0.00 0.00 86 1019.4
20260506113954 53 319 0.0 0.0 0.00 0.00 0.00 87 1019.0
20260506112939 53 281 0.0 0.0 0.00 0.00 0.00 87 1019.0
20260506111922 53 263 0.0 0.0 0.00 0.00 0.00 87 1018.8
20260506110914 53 300 0.0 0.0 0.00 0.00 0.00 87 1018.7
20260506105849 53 258 0.0 4.0 0.00 0.00 0.00 87 1018.6
20260506104846 53 266 1.0 4.0 0.00 0.00 0.00 87 1018.4
20260506103902 53 272 0.0 2.0 0.00 0.00 0.00 87 1018.2
20260506102900 53 281 0.0 0.0 0.00 0.00 0.00 87 1018.2
20260506101826 53 286 0.0 1.0 0.00 0.00 0.00 87 1018.0
20260506100818 53 284 0.0 1.0 0.00 0.00 0.00 87 1017.9
20260506095752 53 281 0.0 0.0 0.00 0.00 0.00 87 1017.9
20260506094801 53 286 0.0 0.0 0.00 0.00 0.00 87 1017.8
20260506092631 53 286 0.0 0.0 0.00 0.00 0.00 87 1017.7
20260506091642 53 271 0.0 0.0 0.00 0.00 0.00 86 1017.6
20260506090607 53 271 0.0 0.0 0.00 0.00 0.00 86 1017.5
20260506085616 54 272 0.0 0.0 0.00 0.00 0.00 85 1017.5